DLH519 MROC-EDDF

Flight info

Callsign DLH519
Flight time N/A
Altitude 34000
Route NANJO3R RADON UB767 PESTO DCT KANEX UM330 XOTIK/N0470F360 UM330 ENAMO/N0469F350 DCT GRATX/M079F350 DCT JIMAC/M079F370 DCT QINCY DCT SOORY DCT 44N050W 4730N04000W 50N030W 51N020W DCT DINIM DCT ELSOX DCT LESLU/N0455F370 DCT OXLOW/N0450F390 DCT KONAN UL607 SPI T180 NIVNU T847 IMCOM IMCOM2C
Aircraft A343/H-SDE2E3FGHIJ3J5M1P2RWXYZ/LB1D1

Departure

Time 2026-05-09 08:07
Airport Juan Santamaría International Airport (MROC)

Arrival

Time N/A
Airport Frankfurt Main Airport (EDDF)
Time Latitude Longitude Altitude Speed Heading
2026-05-09 07:18 9.99836 -84.20157 3036 ft 0 kts 339°
2026-05-09 07:18 9.99835 -84.20157 3036 ft 0 kts 339°
2026-05-09 07:24 9.99835 -84.20156 3036 ft 0 kts 339°
2026-05-09 07:25 9.99835 -84.20157 3036 ft 0 kts 339°
2026-05-09 07:25 9.99835 -84.20156 3036 ft 0 kts 339°
2026-05-09 07:28 9.99834 -84.20156 3036 ft 0 kts 339°
2026-05-09 07:37 9.99833 -84.20156 3036 ft 0 kts 339°
2026-05-09 07:46 9.99832 -84.20156 3036 ft 0 kts 339°
2026-05-09 07:49 9.99832 -84.20155 3036 ft 0 kts 339°
2026-05-09 07:53 9.99829 -84.20154 3036 ft 1 kts 339°
2026-05-09 07:53 9.99824 -84.20152 3039 ft 1 kts 339°
2026-05-09 07:53 9.99802 -84.20148 3035 ft 4 kts 343°
2026-05-09 07:53 9.99782 -84.20140 3035 ft 4 kts 318°
2026-05-09 07:54 9.99772 -84.20120 3036 ft 4 kts 258°
2026-05-09 07:54 9.99782 -84.20095 3036 ft 4 kts 243°
2026-05-09 07:54 9.99788 -84.20082 3038 ft 1 kts 249°
2026-05-09 07:54 9.99790 -84.20077 3037 ft 0 kts 249°
2026-05-09 07:57 9.99790 -84.20076 3037 ft 0 kts 249°
2026-05-09 07:57 9.99789 -84.20079 3037 ft 0 kts 249°
2026-05-09 08:00 9.99788 -84.20081 3038 ft 3 kts 249°
2026-05-09 08:00 9.99765 -84.20145 3038 ft 18 kts 249°
2026-05-09 08:01 9.99720 -84.20263 3035 ft 19 kts 249°
2026-05-09 08:01 9.99678 -84.20376 3030 ft 16 kts 249°
2026-05-09 08:01 9.99651 -84.20447 3029 ft 17 kts 249°
2026-05-09 08:01 9.99608 -84.20562 3025 ft 18 kts 249°
2026-05-09 08:02 9.99560 -84.20688 3015 ft 20 kts 249°
2026-05-09 08:02 9.99509 -84.20825 3010 ft 21 kts 249°
2026-05-09 08:02 9.99454 -84.20972 3003 ft 23 kts 249°
2026-05-09 08:02 9.99397 -84.21125 2996 ft 19 kts 250°
2026-05-09 08:03 9.99352 -84.21249 2991 ft 18 kts 250°
2026-05-09 08:03 9.99305 -84.21374 2986 ft 19 kts 247°
2026-05-09 08:03 9.99254 -84.21505 2981 ft 21 kts 249°
2026-05-09 08:03 9.99201 -84.21645 2976 ft 22 kts 249°
2026-05-09 08:04 9.99146 -84.21795 2970 ft 23 kts 250°
2026-05-09 08:04 9.99098 -84.21943 2952 ft 21 kts 264°
2026-05-09 08:04 9.99097 -84.22095 2948 ft 22 kts 250°
2026-05-09 08:04 9.99012 -84.22203 2944 ft 18 kts 184°
2026-05-09 08:05 9.98927 -84.22160 2940 ft 6 kts 122°
2026-05-09 08:05 9.98927 -84.22142 2946 ft 1 kts 85°
2026-05-09 08:05 9.98929 -84.22113 2941 ft 2 kts 79°
2026-05-09 08:05 9.98930 -84.22110 2941 ft 1 kts 72°
2026-05-09 08:06 9.98932 -84.22106 2941 ft 0 kts 69°
2026-05-09 08:06 9.98945 -84.22072 2947 ft 25 kts 69°
2026-05-09 08:06 9.99074 -84.21730 2972 ft 78 kts 69°
2026-05-09 08:06 9.99328 -84.21052 2999 ft 126 kts 69°
2026-05-09 08:07 9.99689 -84.20088 3051 ft 164 kts 69°
2026-05-09 08:07 10.00102 -84.19094 3659 ft 156 kts 66°
2026-05-09 08:07 10.00839 -84.18209 3902 ft 186 kts 29°
2026-05-09 08:07 10.02244 -84.18124 4047 ft 226 kts 342°
2026-05-09 08:08 10.03639 -84.19072 4349 ft 255 kts 319°
2026-05-09 08:08 10.04975 -84.20244 4911 ft 253 kts 316°
2026-05-09 08:08 10.05905 -84.21761 5454 ft 257 kts 292°
2026-05-09 08:08 10.06477 -84.23512 5893 ft 269 kts 288°
2026-05-09 08:09 10.07048 -84.25364 6219 ft 280 kts 289°
2026-05-09 08:09 10.07678 -84.27264 6662 ft 287 kts 291°
2026-05-09 08:09 10.08352 -84.29196 7129 ft 293 kts 291°
2026-05-09 08:09 10.09068 -84.31153 7572 ft 299 kts 294°
2026-05-09 08:10 10.10170 -84.32940 8059 ft 299 kts 317°
2026-05-09 08:10 10.11889 -84.34073 8548 ft 295 kts 345°
2026-05-09 08:10 10.13890 -84.34313 9050 ft 289 kts 11°
2026-05-09 08:10 10.15753 -84.33673 9576 ft 282 kts 36°
2026-05-09 08:11 10.17353 -84.32563 10070 ft 286 kts 35°
2026-05-09 08:11 10.19174 -84.31602 10400 ft 297 kts 28°
2026-05-09 08:11 10.21107 -84.30728 10626 ft 311 kts 27°
2026-05-09 08:11 10.23131 -84.29838 10860 ft 324 kts 26°
2026-05-09 08:12 10.27411 -84.27959 11311 ft 348 kts 26°
2026-05-09 08:12 10.29654 -84.26954 11530 ft 358 kts 28°
2026-05-09 08:12 10.31914 -84.25836 11869 ft 363 kts 29°
2026-05-09 08:13 10.34162 -84.24707 12255 ft 367 kts 28°
2026-05-09 08:13 10.36492 -84.23543 12671 ft 370 kts 28°
2026-05-09 08:13 10.38812 -84.22391 13089 ft 372 kts 28°
2026-05-09 08:13 10.41117 -84.21250 13511 ft 375 kts 28°
2026-05-09 08:14 10.43470 -84.20087 13903 ft 377 kts 28°
2026-05-09 08:14 10.45835 -84.18919 14270 ft 379 kts 27°
2026-05-09 08:14 10.48215 -84.17745 14660 ft 381 kts 27°
2026-05-09 08:14 10.50640 -84.16548 15052 ft 384 kts 27°
2026-05-09 08:15 10.53017 -84.15375 15389 ft 386 kts 27°
2026-05-09 08:15 10.55440 -84.14179 15766 ft 388 kts 27°
2026-05-09 08:15 10.57880 -84.12974 16140 ft 391 kts 27°
2026-05-09 08:15 10.60330 -84.11765 16534 ft 393 kts 27°
2026-05-09 08:16 10.62793 -84.10548 16915 ft 395 kts 27°
2026-05-09 08:16 10.65269 -84.09325 17306 ft 397 kts 27°
2026-05-09 08:16 10.67762 -84.08094 17689 ft 399 kts 27°
2026-05-09 08:16 10.70325 -84.06975 18065 ft 403 kts 20°
2026-05-09 08:17 10.73020 -84.06148 18405 ft 406 kts 17°
2026-05-09 08:17 10.75776 -84.05458 18723 ft 409 kts 15°
2026-05-09 08:17 10.78569 -84.04833 19036 ft 412 kts 14°
2026-05-09 08:17 10.81381 -84.04229 19356 ft 415 kts 14°
2026-05-09 08:18 10.84216 -84.03620 19677 ft 418 kts 14°
2026-05-09 08:18 10.87068 -84.02997 19995 ft 420 kts 14°
2026-05-09 08:18 10.89929 -84.02360 20304 ft 423 kts 15°
2026-05-09 08:18 10.92808 -84.01709 20636 ft 425 kts 15°
2026-05-09 08:19 10.95701 -84.01051 20945 ft 427 kts 15°
2026-05-09 08:19 10.98613 -84.00385 21272 ft 430 kts 15°
2026-05-09 08:19 11.01540 -83.99715 21578 ft 432 kts 15°
2026-05-09 08:19 11.04480 -83.99042 21885 ft 435 kts 15°
2026-05-09 08:20 11.07440 -83.98365 22186 ft 437 kts 15°
2026-05-09 08:20 11.10415 -83.97685 22483 ft 440 kts 15°
2026-05-09 08:20 11.13409 -83.97000 22790 ft 442 kts 15°
2026-05-09 08:20 11.16411 -83.96313 23082 ft 444 kts 15°
2026-05-09 08:21 11.19435 -83.95622 23372 ft 447 kts 15°
2026-05-09 08:21 11.22474 -83.94926 23621 ft 449 kts 15°
2026-05-09 08:21 11.25527 -83.94227 23888 ft 450 kts 15°
2026-05-09 08:21 11.28585 -83.93528 24179 ft 451 kts 15°
2026-05-09 08:22 11.31649 -83.92827 24437 ft 452 kts 15°
2026-05-09 08:22 11.34720 -83.92124 24710 ft 453 kts 15°
2026-05-09 08:22 11.37802 -83.91418 24973 ft 454 kts 15°
2026-05-09 08:22 11.40889 -83.90711 25238 ft 456 kts 15°
2026-05-09 08:23 11.43992 -83.90000 25493 ft 458 kts 14°
2026-05-09 08:23 11.47104 -83.89286 25759 ft 459 kts 14°
2026-05-09 08:23 11.50225 -83.88571 26018 ft 460 kts 14°
2026-05-09 08:23 11.53353 -83.87854 26282 ft 461 kts 14°
2026-05-09 08:24 11.56490 -83.87134 26564 ft 463 kts 14°
2026-05-09 08:24 11.59631 -83.86413 26820 ft 464 kts 14°
2026-05-09 08:24 11.62784 -83.85690 27081 ft 465 kts 14°
2026-05-09 08:24 11.65942 -83.84965 27346 ft 466 kts 14°
2026-05-09 08:25 11.69113 -83.84237 27613 ft 467 kts 14°
2026-05-09 08:25 11.72290 -83.83507 27872 ft 469 kts 14°
2026-05-09 08:25 11.75477 -83.82775 28119 ft 470 kts 14°
2026-05-09 08:25 11.78672 -83.82041 28375 ft 471 kts 13°
2026-05-09 08:26 11.81874 -83.81306 28615 ft 472 kts 13°
2026-05-09 08:26 11.85082 -83.80569 28853 ft 474 kts 13°
2026-05-09 08:26 11.88258 -83.79840 29094 ft 475 kts 13°
2026-05-09 08:26 11.91486 -83.79098 29317 ft 476 kts 13°
2026-05-09 08:27 11.94719 -83.78355 29538 ft 477 kts 13°
2026-05-09 08:27 11.97967 -83.77608 29762 ft 479 kts 13°
2026-05-09 08:27 12.01218 -83.76870 29995 ft 479 kts 12°
2026-05-09 08:27 12.04488 -83.76215 30254 ft 478 kts 11°
2026-05-09 08:28 12.07763 -83.75618 30497 ft 478 kts 10°
2026-05-09 08:28 12.11041 -83.75041 30746 ft 477 kts 10°
2026-05-09 08:28 12.14308 -83.74464 30968 ft 477 kts 10°
2026-05-09 08:28 12.17575 -83.73878 31213 ft 476 kts 10°
2026-05-09 08:29 12.20836 -83.73284 31441 ft 476 kts 10°
2026-05-09 08:29 12.24094 -83.72683 31665 ft 475 kts 10°
2026-05-09 08:29 12.27343 -83.72080 31900 ft 474 kts 10°
2026-05-09 08:29 12.30584 -83.71475 32112 ft 474 kts 10°
2026-05-09 08:30 12.33829 -83.70869 32343 ft 473 kts 10°
2026-05-09 08:30 12.37069 -83.70264 32513 ft 474 kts 10°
2026-05-09 08:30 12.40307 -83.69660 32702 ft 473 kts 10°
2026-05-09 08:30 12.43546 -83.69055 32921 ft 473 kts 10°
2026-05-09 08:31 12.46777 -83.68452 33125 ft 472 kts 10°
2026-05-09 08:31 12.50009 -83.67849 33315 ft 472 kts 10°
2026-05-09 08:31 12.53237 -83.67246 33507 ft 471 kts 10°
2026-05-09 08:31 12.56457 -83.66645 33695 ft 471 kts 10°
2026-05-09 08:32 12.59680 -83.66044 33843 ft 471 kts 10°
2026-05-09 08:32 12.62901 -83.65442 33870 ft 469 kts 10°
2026-05-09 08:33 12.72466 -83.63654 33878 ft 465 kts 10°
2026-05-09 08:33 12.78831 -83.62464 33880 ft 465 kts 10°
2026-05-09 08:34 12.85197 -83.61273 33881 ft 465 kts 10°
2026-05-09 08:34 12.91565 -83.60081 33878 ft 465 kts 10°
2026-05-09 08:35 12.97933 -83.58889 33881 ft 465 kts 10°
2026-05-09 08:35 13.04294 -83.57697 33879 ft 465 kts 10°
2026-05-09 08:36 13.10667 -83.56502 33881 ft 466 kts 10°
2026-05-09 08:36 13.17043 -83.55306 33881 ft 466 kts 10°
2026-05-09 08:37 13.23377 -83.54117 33882 ft 466 kts 10°
2026-05-09 08:37 13.29756 -83.52919 33880 ft 465 kts 10°
2026-05-09 08:38 13.36096 -83.51727 33882 ft 462 kts 10°
2026-05-09 08:38 13.42417 -83.50539 33878 ft 462 kts
2026-05-09 08:39 13.48754 -83.49348 33886 ft 463 kts
2026-05-09 08:39 13.55098 -83.48155 33887 ft 463 kts 10°
2026-05-09 08:40 13.61438 -83.46961 33882 ft 463 kts 10°
2026-05-09 08:40 13.67784 -83.45765 33881 ft 463 kts 10°
2026-05-09 08:41 13.74126 -83.44569 33881 ft 463 kts 10°
2026-05-09 08:41 13.80469 -83.43373 33883 ft 464 kts 10°
2026-05-09 08:42 13.86835 -83.42173 33886 ft 466 kts 10°
2026-05-09 08:42 13.93219 -83.40967 33893 ft 466 kts 10°
2026-05-09 08:43 13.99598 -83.39762 33882 ft 466 kts 10°
2026-05-09 08:43 14.05912 -83.38243 33885 ft 466 kts 18°
2026-05-09 08:44 14.12045 -83.36059 33883 ft 467 kts 19°
2026-05-09 08:44 14.18155 -83.33765 33885 ft 468 kts 20°
2026-05-09 08:45 14.24277 -83.31453 33889 ft 469 kts 19°
2026-05-09 08:45 14.30404 -83.29151 33888 ft 469 kts 19°
2026-05-09 08:46 14.36493 -83.26869 33886 ft 469 kts 19°
2026-05-09 08:46 14.42620 -83.24574 33890 ft 469 kts 19°
2026-05-09 08:47 14.48748 -83.22276 33890 ft 469 kts 19°
2026-05-09 08:47 14.54879 -83.19975 33888 ft 469 kts 19°
2026-05-09 08:48 14.61006 -83.17675 33887 ft 469 kts 19°
2026-05-09 08:48 14.66140 -83.15746 33888 ft 469 kts 19°
2026-05-09 08:49 14.72215 -83.13463 33892 ft 467 kts 19°
2026-05-09 08:49 14.78318 -83.11166 33890 ft 467 kts 19°
2026-05-09 08:50 14.84421 -83.08869 33889 ft 466 kts 19°
2026-05-09 08:50 14.90506 -83.06578 33888 ft 465 kts 20°
2026-05-09 08:51 14.96584 -83.04289 33887 ft 465 kts 19°
2026-05-09 08:51 15.02658 -83.01999 33894 ft 464 kts 19°
2026-05-09 08:52 15.08728 -82.99709 33889 ft 464 kts 19°
2026-05-09 08:52 15.14796 -82.97418 33890 ft 464 kts 19°
2026-05-09 08:53 15.20861 -82.95126 33888 ft 464 kts 20°
2026-05-09 08:53 15.26930 -82.92836 33893 ft 464 kts 19°
2026-05-09 08:54 15.32998 -82.90546 33893 ft 464 kts 20°
2026-05-09 08:54 15.39067 -82.88248 33893 ft 464 kts 20°
2026-05-09 08:55 15.45137 -82.85949 33893 ft 464 kts 20°
2026-05-09 08:55 15.51198 -82.83655 33897 ft 464 kts 20°
2026-05-09 08:56 15.57257 -82.81360 33895 ft 463 kts 20°
2026-05-09 08:56 15.63300 -82.79069 33895 ft 462 kts 20°
2026-05-09 08:57 15.69344 -82.76777 33896 ft 463 kts 20°
2026-05-09 08:57 15.75394 -82.74481 33896 ft 463 kts 20°
2026-05-09 08:58 15.81444 -82.72184 33898 ft 463 kts 20°
2026-05-09 08:58 15.87493 -82.69886 33893 ft 463 kts 20°
2026-05-09 08:59 15.93526 -82.67592 33893 ft 461 kts 20°
2026-05-09 08:59 15.99548 -82.65301 33900 ft 461 kts 20°
2026-05-09 09:00 16.05574 -82.63007 33909 ft 461 kts 20°
2026-05-09 09:00 16.11597 -82.60713 33916 ft 461 kts 20°
2026-05-09 09:01 16.17624 -82.58415 33901 ft 461 kts 20°
2026-05-09 09:01 16.23645 -82.56117 33915 ft 461 kts 21°
2026-05-09 09:02 16.29631 -82.53832 33899 ft 461 kts 21°
2026-05-09 09:02 16.35652 -82.51533 33899 ft 461 kts 21°
2026-05-09 09:03 16.41676 -82.49230 33906 ft 461 kts 21°
2026-05-09 09:03 16.47701 -82.46925 33917 ft 461 kts 21°
2026-05-09 09:04 16.53723 -82.44623 33903 ft 461 kts 21°
2026-05-09 09:04 16.59749 -82.42315 33911 ft 461 kts 21°
2026-05-09 09:05 16.65773 -82.40004 33927 ft 461 kts 21°
2026-05-09 09:05 16.71799 -82.37694 33918 ft 462 kts 21°
2026-05-09 09:06 16.77822 -82.35382 33906 ft 461 kts 21°
2026-05-09 09:06 16.83846 -82.33068 33919 ft 461 kts 21°
2026-05-09 09:07 16.89867 -82.30757 33907 ft 461 kts 21°
2026-05-09 09:07 16.95899 -82.28437 33912 ft 462 kts 21°
2026-05-09 09:08 17.01927 -82.26117 33914 ft 462 kts 21°
2026-05-09 09:08 17.07913 -82.23812 33912 ft 461 kts 20°
2026-05-09 09:09 17.13939 -82.21491 33913 ft 461 kts 21°
2026-05-09 09:09 17.19966 -82.19165 33928 ft 462 kts 21°
2026-05-09 09:10 17.25996 -82.16839 33928 ft 462 kts 20°
2026-05-09 09:10 17.32022 -82.14513 33916 ft 462 kts 20°
2026-05-09 09:11 17.38051 -82.12183 33922 ft 462 kts 21°
2026-05-09 09:11 17.44081 -82.09850 33918 ft 462 kts 21°
2026-05-09 09:12 17.50117 -82.07513 33917 ft 462 kts 21°
2026-05-09 09:12 17.56111 -82.05094 33915 ft 461 kts 26°
2026-05-09 09:13 17.61871 -82.02122 33939 ft 462 kts 27°
2026-05-09 09:13 17.67588 -81.99045 33937 ft 461 kts 27°
2026-05-09 09:14 17.73292 -81.95953 33919 ft 462 kts 27°
2026-05-09 09:14 17.79009 -81.92859 33936 ft 462 kts 27°
2026-05-09 09:15 17.84722 -81.89773 33923 ft 462 kts 27°
2026-05-09 09:15 17.90432 -81.86690 33924 ft 461 kts 27°
2026-05-09 09:16 17.96135 -81.83605 33935 ft 461 kts 27°
2026-05-09 09:16 18.04691 -81.78973 33941 ft 462 kts 27°
2026-05-09 09:17 18.10367 -81.75898 33937 ft 462 kts 27°
2026-05-09 09:17 18.16081 -81.72798 33928 ft 462 kts 27°
2026-05-09 09:18 18.21792 -81.69697 33927 ft 462 kts 27°
2026-05-09 09:18 18.27499 -81.66599 33943 ft 462 kts 27°
2026-05-09 09:19 18.33210 -81.63496 33930 ft 462 kts 27°
2026-05-09 09:19 18.38922 -81.60389 33935 ft 462 kts 27°
2026-05-09 09:20 18.44634 -81.57280 33933 ft 462 kts 27°
2026-05-09 09:20 18.50348 -81.54167 33932 ft 462 kts 27°
2026-05-09 09:21 18.56061 -81.51053 33934 ft 462 kts 27°
2026-05-09 09:21 18.61776 -81.47936 33935 ft 463 kts 27°
2026-05-09 09:22 18.67503 -81.44811 33948 ft 464 kts 27°
2026-05-09 09:22 18.73236 -81.41678 33935 ft 464 kts 27°
2026-05-09 09:23 18.78968 -81.38545 33937 ft 464 kts 27°
2026-05-09 09:23 18.84694 -81.35412 33950 ft 464 kts 27°
2026-05-09 09:24 18.90431 -81.32269 33950 ft 464 kts 27°
2026-05-09 09:24 18.96164 -81.29127 33945 ft 465 kts 27°
2026-05-09 09:25 19.01915 -81.25973 33952 ft 466 kts 27°
2026-05-09 09:25 19.07674 -81.22812 33943 ft 466 kts 27°
2026-05-09 09:26 19.13427 -81.19652 33959 ft 466 kts 27°
2026-05-09 09:26 19.19188 -81.16484 33945 ft 466 kts 27°
2026-05-09 09:27 19.24947 -81.13316 33947 ft 467 kts 27°
2026-05-09 09:27 19.30716 -81.10138 33946 ft 468 kts 27°
2026-05-09 09:28 19.36500 -81.06951 33953 ft 469 kts 27°
2026-05-09 09:28 19.42285 -81.03761 33953 ft 469 kts 27°
2026-05-09 09:29 19.48069 -81.00568 33951 ft 469 kts 27°
2026-05-09 09:29 19.53812 -80.97396 33953 ft 469 kts 27°
2026-05-09 09:30 19.59596 -80.94197 33952 ft 469 kts 27°
2026-05-09 09:30 19.65386 -80.90994 33954 ft 470 kts 27°
2026-05-09 09:31 19.71174 -80.87789 33958 ft 469 kts 27°
2026-05-09 09:32 19.79845 -80.82982 33959 ft 469 kts 27°
2026-05-09 09:32 19.85624 -80.79776 33959 ft 469 kts 27°
2026-05-09 09:33 19.91404 -80.76566 33960 ft 469 kts 27°
2026-05-09 09:33 19.97197 -80.73345 33960 ft 470 kts 27°
2026-05-09 09:34 20.02566 -80.69377 33959 ft 471 kts 39°
2026-05-09 09:34 20.07560 -80.64854 33959 ft 472 kts 40°
2026-05-09 09:36 20.26486 -80.47197 33965 ft 474 kts 40°
2026-05-09 09:37 20.31451 -80.42578 33969 ft 474 kts 40°
2026-05-09 09:37 20.36416 -80.37951 33962 ft 474 kts 40°
2026-05-09 09:38 20.41378 -80.33324 33958 ft 474 kts 40°
2026-05-09 09:38 20.46341 -80.28690 33962 ft 474 kts 40°
2026-05-09 09:39 20.51300 -80.24056 33964 ft 474 kts 40°
2026-05-09 09:39 20.56264 -80.19421 33962 ft 476 kts 40°
2026-05-09 09:40 20.61245 -80.14751 33963 ft 477 kts 40°
2026-05-09 09:40 20.66224 -80.10077 33964 ft 476 kts 40°
2026-05-09 09:41 20.71160 -80.05442 33967 ft 476 kts 40°
2026-05-09 09:41 20.76133 -80.00770 33967 ft 476 kts 40°
2026-05-09 09:42 20.81104 -79.96096 33967 ft 476 kts 40°
2026-05-09 09:42 20.86074 -79.91418 33964 ft 476 kts 40°
2026-05-09 09:43 20.91062 -79.86720 33965 ft 479 kts 40°
2026-05-09 09:43 20.96056 -79.82012 33966 ft 479 kts 40°
2026-05-09 09:44 21.01051 -79.77297 33969 ft 478 kts 39°
2026-05-09 09:44 21.06035 -79.72588 33967 ft 478 kts 40°
2026-05-09 09:45 21.11013 -79.67882 33968 ft 477 kts 40°
2026-05-09 09:45 21.15993 -79.63168 33973 ft 478 kts 40°
2026-05-09 09:46 21.20945 -79.58479 33972 ft 478 kts 40°
2026-05-09 09:46 21.25923 -79.53760 33973 ft 478 kts 40°
2026-05-09 09:47 21.30896 -79.49039 33971 ft 478 kts 40°
2026-05-09 09:47 21.34221 -79.45885 33975 ft 478 kts 40°